Alexandria, LA

5:53 PM CDT on April 28, 2017 (GMT -0500)
Alexandria International

Weather History for KAEX - November, 2014

Change the Weather History Date:

Sunday, November 2, 2014

  Actual Average Record
Temperature  
Mean Temperature 49 °F 62 °F  
Max Temperature 65 °F 75 °F 87 °F (1961)
Min Temperature 33 °F 49 °F 30 °F (1963)
Degree Days  
Heating Degree Days 16 5  
Month to date heating degree days 33 10  
Since 1 July heating degree days 68 83  
Moisture  
Dew Point 34 °F    
Average Humidity 64    
Maximum Humidity 100    
Minimum Humidity 27    
Precipitation  
Precipitation 0.00 in 0.12 in 3.07 in (1977)
Month to date precipitation 0.00 0.17  
Year to date precipitation 36.77 44.48  
Snow  
Snow 0.00 in - 0.00 in ()
Month to date snowfall 0.0  
Since 1 July snowfall 0.0  
Since 1 September snowfall 0.0  
Snow Depth 0.00 in    
Sea Level Pressure  
Sea Level Pressure 30.38 in    
Wind  
Wind Speed 3 mph (ESE)    
Max Wind Speed 12 mph    
Max Gust Speed 15 mph    
Visibility 10 miles    
Events      
T = Trace of Precipitation, MM = Missing Value Source: NWS Daily Summary

Daily Weather History Graph

Daily Weather History Graph

Search for Another Location

Airport or City:

Trip Planner

Search our weather history database for the weather conditions in past years. The results will help you decide how hot, cold, wet, or windy it might be!

Date:

Astronomy

Nov. 02, 2014 Rise Set
Actual Time 6:26 AM CST 5:20 PM CST
Civil Twilight 6:01 AM CST 5:45 PM CST
Nautical Twilight 5:32 AM CST 6:14 PM CST
Astronomical Twilight 5:04 AM CST 6:42 PM CST
Moon 2:36 PM CST (11/2) 1:48 AM CST (11/2)
Length of Visible Light 11h 43m
Length of Day
10h 53m
Waxing Gibbous, 79% of the Moon is Illuminated
Nov 2
Waxing Gibbous
Nov 6
Full
Nov 14
Last Quarter
Nov 22
New
Nov 29
First Quarter

Hourly Weather History & Observations

Time (CST) Temp. Windchill Dew Point Humidity Pressure Visibility Wind Dir Wind Speed Gust Speed Precip Events Conditions
12:53 AM 41.0 °F 38.0 °F 30.9 °F 67% 30.39 in 10.0 mi NE 4.6 mph - N/A   Clear
1:53 AM 37.9 °F - 32.0 °F 79% 30.38 in 10.0 mi Calm Calm - N/A   Clear
1:53 AM 39.0 °F 34.8 °F 30.9 °F 73% 30.38 in 10.0 mi ENE 5.8 mph - N/A   Clear
2:53 AM 37.9 °F 35.5 °F 32.0 °F 79% 30.38 in 10.0 mi ENE 3.5 mph - N/A   Clear
3:53 AM 36.0 °F 33.3 °F 30.9 °F 82% 30.39 in 10.0 mi ENE 3.5 mph - N/A   Clear
4:53 AM 34.0 °F - 32.0 °F 92% 30.40 in 10.0 mi Calm Calm - N/A   Clear
5:53 AM 33.1 °F - 30.9 °F 92% 30.42 in 10.0 mi Calm Calm - N/A   Clear
6:53 AM 34.0 °F - 33.1 °F 96% 30.43 in 10.0 mi Calm Calm - N/A   Clear
7:53 AM 42.1 °F 38.4 °F 35.1 °F 76% 30.45 in 10.0 mi ESE 5.8 mph - N/A   Clear
8:53 AM 48.0 °F - 34.0 °F 58% 30.46 in 10.0 mi ESE 11.5 mph - N/A   Clear
9:53 AM 53.1 °F - 34.0 °F 48% 30.47 in 10.0 mi ESE 6.9 mph - N/A   Clear
10:53 AM 55.0 °F - 34.0 °F 45% 30.45 in 10.0 mi ESE 6.9 mph - N/A   Clear
11:53 AM 57.9 °F - 32.0 °F 37% 30.42 in 10.0 mi North - - N/A   Clear
12:53 PM 61.0 °F - 32.0 °F 34% 30.38 in 10.0 mi ESE 6.9 mph - N/A   Clear
1:53 PM 63.0 °F - 28.9 °F 28% 30.35 in 10.0 mi East 8.1 mph - N/A   Clear
2:53 PM 64.0 °F - 30.9 °F 29% 30.34 in 10.0 mi Variable 5.8 mph - N/A   Clear
3:53 PM 64.0 °F - 30.9 °F 29% 30.33 in 10.0 mi SE 6.9 mph - N/A   Clear
4:53 PM 60.1 °F - 33.1 °F 36% 30.32 in 10.0 mi SSE 4.6 mph - N/A   Clear
5:53 PM 53.1 °F - 41.0 °F 64% 30.32 in 10.0 mi Calm Calm - N/A   Clear
6:53 PM 51.1 °F - 41.0 °F 68% 30.34 in 10.0 mi Calm Calm - N/A   Clear
7:53 PM 48.9 °F - 41.0 °F 74% 30.34 in 10.0 mi Calm Calm - N/A   Clear
8:53 PM 48.0 °F - 42.1 °F 80% 30.34 in 10.0 mi Calm Calm - N/A   Clear
9:53 PM 48.0 °F - 42.1 °F 80% 30.33 in 10.0 mi Calm Calm - N/A   Clear
10:53 PM 48.0 °F - 41.0 °F 77% 30.32 in 10.0 mi Calm Calm - N/A   Clear